Terminal Aerodrome Forecast
Issued by NWS Sioux Falls, SD

Home | Current Version | Previous Version | Graphics & Text | Print | Product List | Glossary On
Versions: 1 2 3 4 5 6 7 8 9 10 11 12 13 14 15 16 17 18 19 20 21 22 23 24 25 26 27 28 29 30 31 32 33 34 35 36
000
FTUS43 KFSD 040529
TAFSUX
TAF
KSUX 040529Z 0406/0506 02012KT P6SM BKN080
     FM041400 05014G20KT P6SM BKN120
     FM042200 06012KT P6SM OVC060
     FM050200 07010KT P6SM -RA OVC040=

USA.gov is the U.S. government's official web portal to all federal, state and local government web resources and services.